Temperature
22 22 21 22 24 24 25 29 34 35 35 35 35 35 34 32 31 28 27 27 25 24 25 24 24 23 22 22 21 21 20 20 20 20 19 19 19 20 20 19 19 19 19 19 19 19 19 19 19
22 21 22 25 26 24 25 30 33 35 35 35 34 34 34 31 30 28 27 26 24 24 25 24 24 23 23 22 21 21 20 20 20 20 19 19 19 19 20 19 19 19 19 19 19 19 19 19 20
22 23 25 28 28 27 28 32 34 35 35 35 34 34 32 30 29 28 26 25 23 23 24 24 24 23 23 22 22 21 21 20 20 20 20 20 19 19 19 19 19 19 19 19 19 19 19 19 20
22 25 27 29 30 32 33 34 35 35 35 35 34 33 30 29 28 27 26 25 23 22 24 24 24 23 23 22 22 21 21 20 20 20 20 20 20 20 20 19 19 19 19 19 19 19 19 20 20
24 27 29 31 32 34 35 35 35 35 35 34 34 32 29 28 27 26 26 25 24 23 23 24 24 23 23 22 22 21 21 21 20 20 20 20 20 20 20 20 20 19 19 20 20 20 20 20 20
27 30 30 32 33 35 36 35 35 35 35 34 33 31 28 27 27 26 26 26 25 23 23 24 23 23 23 22 22 21 21 21 20 20 20 20 20 20 20 20 20 20 20 20 20 20 20 20 20
28 30 31 32 34 35 36 35 35 35 35 34 33 31 28 27 27 27 26 26 26 23 23 24 23 23 22 22 22 21 21 21 21 20 20 20 20 20 20 20 20 20 20 20 20 20 19 19 19
28 30 31 33 34 35 36 36 35 35 34 33 33 31 28 27 27 26 26 27 26 24 23 23 23 22 22 22 22 21 21 21 21 20 20 20 20 20 20 20 20 20 20 20 19 19 19 19 19
29 30 30 32 34 35 36 36 35 35 34 32 31 30 28 28 27 26 26 26 26 24 22 22 21 22 21 21 21 21 21 21 20 20 20 20 20 20 20 20 20 20 19 19 19 19 19 19 19
30 30 31 34 35 35 35 35 35 35 33 31 29 28 28 27 27 27 26 26 25 24 23 22 21 21 20 20 20 20 20 20 20 20 20 20 20 19 19 19 19 19 19 19 19 19 19 19 19
31 31 32 34 34 34 35 35 34 34 32 29 28 27 27 27 27 26 26 26 25 24 23 22 21 20 20 20 20 20 19 19 20 19 19 19 19 19 19 19 19 18 18 18 18 18 18 18 18
32 32 33 33 34 34 34 34 34 33 30 29 27 27 26 26 26 26 25 25 24 23 23 22 21 21 20 20 20 20 20 20 19 19 19 19 18 18 18 19 19 18 18 18 18 18 18 18 18
32 33 33 33 33 33 33 33 33 32 29 28 27 26 26 26 26 25 24 24 23 22 22 22 21 20 20 20 20 20 20 20 19 19 19 19 18 18 18 18 18 18 18 18 18 18 18 18 18
32 33 33 33 33 33 33 33 32 31 29 27 26 25 25 25 24 24 23 23 22 22 21 21 21 20 20 19 19 19 19 19 19 19 19 19 18 18 18 18 18 18 18 18 18 18 18 18 18
32 32 32 33 33 33 33 32 31 30 29 27 26 24 23 22 22 22 21 21 21 21 21 20 20 19 19 19 19 19 19 19 19 19 18 18 18 18 18 18 18 18 18 18 18 17 17 17 17
32 31 31 32 33 33 32 30 30 29 28 26 25 23 21 20 20 20 20 20 20 20 20 20 19 19 19 18 19 18 18 18 18 18 18 18 18 17 17 17 17 17 17 17 17 17 17 17 17
30 30 30 31 32 32 31 29 28 28 26 25 24 22 21 20 20 19 19 19 19 19 19 19 19 19 18 18 18 18 18 18 18 17 17 17 17 17 17 17 17 17 17 17 17 17 17 17 17
29 29 28 28 29 30 30 29 28 27 27 25 23 22 21 20 19 19 19 19 19 19 18 18 18 18 18 18 18 17 17 17 17 17 17 17 17 16 16 16 16 16 16 16 16 16 16 16 17
30 30 29 28 30 30 29 29 28 27 26 25 23 22 21 20 20 19 19 19 18 18 18 18 18 18 18 18 17 17 17 17 17 16 16 16 16 16 16 16 16 16 16 16 16 16 16 16 16
30 29 29 29 29 29 29 28 27 26 25 24 23 22 21 20 20 19 19 19 18 18 18 17 17 17 17 17 17 17 17 17 17 16 16 16 16 16 15 15 15 15 15 15 16 16 16 16 16
29 28 28 27 28 29 28 25 24 24 24 23 23 23 22 21 20 20 19 19 18 18 18 18 17 17 17 17 17 16 16 16 16 16 16 16 15 15 15 15 15 15 15 15 15 15 15 16 16
28 29 29 28 28 26 25 23 21 21 22 23 23 23 22 22 21 20 20 19 18 18 18 17 17 16 16 16 16 16 16 16 16 16 15 15 15 15 15 15 15 15 15 15 15 15 15 16 16
28 29 28 27 26 25 22 21 19 19 20 22 23 23 22 22 21 20 20 19 19 18 18 18 17 16 16 15 15 15 15 15 15 15 15 15 15 15 15 14 15 14 14 14 15 15 15 15 15
30 29 27 24 23 21 21 20 19 19 20 22 23 23 23 22 21 21 20 19 19 19 18 18 17 16 16 15 15 14 14 14 14 14 14 14 14 14 14 14 14 14 14 14 14 14 14 15 15
30 28 24 21 19 19 21 20 20 21 23 23 24 24 23 23 22 21 20 20 19 19 18 18 17 16 16 15 14 14 14 14 14 14 14 14 14 14 14 14 14 14 13 13 13 13 14 14 14
29 28 25 23 22 21 20 20 20 22 23 24 24 24 24 23 22 21 21 20 20 19 18 17 17 16 15 15 14 14 14 13 13 13 13 13 13 13 14 13 13 13 13 13 13 13 13 13 14
29 29 30 28 27 25 21 20 20 22 24 25 25 24 24 23 22 22 21 20 19 19 18 17 16 16 15 14 14 14 13 13 13 13 13 13 13 13 13 13 13 12 12 12 12 12 12 12 13
31 30 29 27 26 25 23 21 20 22 24 25 25 24 24 23 22 21 21 20 19 18 17 16 16 15 14 14 14 13 13 13 13 12 12 12 12 12 12 12 12 12 12 12 12 12 12 12 12
29 29 28 28 27 26 25 22 24 24 24 24 25 24 23 22 21 21 20 19 18 17 16 16 15 14 14 13 13 13 12 12 12 12 12 11 11 11 11 11 11 11 11 11 11 11 11 11 11
29 28 28 26 26 27 26 23 26 26 26 25 24 23 22 21 21 20 19 18 17 16 15 15 14 13 13 13 12 12 12 11 11 11 11 11 11 11 11 11 11 11 11 11 11 11 11 11 11
Wind_Speed
13 13 11 7 4 2 8 8 7 10 9 9 9 7 13 16 11 8 9 15 23 22 20 21 19 17 16 15 15 15 14 14 13 13 12 12 11 10 10 10 9 9 9 9 9 9 10 10 10
13 13 9 6 5 2 5 6 7 9 8 6 7 8 13 15 12 11 12 16 23 21 19 19 20 18 16 15 15 15 14 14 13 13 12 12 11 10 10 9 9 9 9 9 9 9 9 9 9
13 14 7 6 8 6 4 3 4 5 6 6 6 9 10 9 10 9 14 18 22 19 18 20 21 18 17 15 15 14 14 13 13 12 12 11 11 10 10 9 9 8 8 8 8 8 8 8 8
8 10 7 10 14 9 4 3 5 5 5 4 4 9 9 7 7 13 16 19 21 19 19 21 20 19 17 15 14 14 14 13 13 12 11 11 11 10 10 9 9 8 8 8 8 8 8 8 7
11 7 12 15 15 10 5 5 6 5 5 6 7 12 10 11 14 16 16 19 19 19 19 21 20 19 17 16 14 13 13 12 12 12 11 11 10 10 10 9 9 9 9 8 8 8 8 8 8
8 9 14 15 12 9 4 4 6 6 4 5 6 11 8 12 13 15 16 16 18 20 19 19 19 18 16 15 14 13 12 12 11 11 11 11 10 10 10 10 10 10 10 9 9 9 9 9 9
12 13 18 21 18 12 3 2 5 5 4 4 3 10 10 13 12 14 14 14 17 21 20 16 17 16 15 14 14 13 12 12 11 11 11 11 11 11 11 11 11 11 11 11 11 11 11 11 11
12 12 19 20 18 12 3 2 3 4 4 4 4 6 10 13 13 14 12 11 15 19 19 16 15 15 14 14 14 13 12 12 12 12 12 12 12 12 13 13 14 13 13 13 12 12 12 13 13
16 15 18 20 16 11 7 7 4 3 1 5 9 11 12 16 15 15 12 11 11 15 16 15 15 13 13 14 15 15 13 13 12 12 13 13 12 14 15 18 18 18 16 15 15 15 14 14 15
16 15 20 21 18 16 12 10 8 5 3 9 11 11 10 10 12 13 11 12 11 12 13 12 14 12 11 10 13 12 13 14 14 13 14 13 13 13 14 18 22 20 19 17 17 17 16 15 14
19 20 21 22 20 16 15 14 9 7 5 8 8 6 6 6 8 10 9 9 10 8 8 10 11 8 8 6 9 7 8 10 14 14 14 13 11 11 10 7 13 16 17 15 15 16 15 14 13
22 21 21 21 19 15 14 13 8 6 8 8 7 6 6 6 8 7 7 8 10 7 6 6 9 6 2 1 3 4 4 4 6 10 12 9 5 5 3 2 5 9 11 10 9 8 12 13 14
19 19 19 19 17 14 13 12 6 2 8 8 8 6 4 5 7 7 7 7 9 5 4 4 6 5 2 2 3 2 2 1 1 1 5 4 3 3 4 3 2 3 6 6 6 6 8 9 8
18 18 18 17 15 13 11 9 5 1 5 7 8 7 7 9 10 9 8 8 8 5 4 5 5 5 3 1 2 3 4 2 3 3 2 2 1 2 2 3 4 4 4 4 4 7 7 7 6
17 18 18 18 15 11 10 8 3 4 5 7 9 11 13 13 13 12 11 10 8 7 7 6 5 5 3 2 3 3 3 2 2 2 4 3 3 2 3 4 4 5 6 6 5 6 6 7 8
18 18 17 16 12 10 10 6 3 4 6 8 10 11 11 10 11 11 10 10 10 9 8 7 5 6 4 2 2 3 3 3 2 2 3 4 5 4 3 4 5 5 5 4 6 7 7 7 8
16 14 14 7 5 5 7 5 6 6 7 9 9 10 9 9 9 9 9 9 9 9 8 7 7 6 5 3 2 2 2 3 2 3 2 3 5 6 4 4 4 4 4 5 8 6 6 7 8
11 8 7 4 4 5 4 7 10 7 8 11 10 10 9 8 7 7 7 7 7 7 7 6 5 5 4 3 2 2 2 3 2 2 2 3 4 6 4 4 4 4 4 5 6 5 5 6 6
12 10 6 5 5 6 6 6 9 8 6 9 10 10 9 8 7 6 6 6 7 6 6 5 5 4 3 3 4 3 3 3 3 2 1 2 3 4 3 4 4 4 5 5 6 5 6 6 6
10 10 7 3 5 7 6 4 6 8 5 7 10 10 9 8 7 6 5 5 6 5 4 4 4 4 4 3 3 3 4 4 2 1 1 2 2 3 4 3 3 4 4 4 4 4 4 5 5
9 10 8 9 9 9 5 1 5 7 5 5 7 9 9 8 7 6 5 5 5 4 3 4 4 3 4 5 4 5 3 3 2 2 1 1 2 2 3 3 3 3 4 3 3 4 5 5 4
9 9 10 10 8 5 2 2 3 2 2 3 5 8 8 7 7 6 5 4 2 2 2 3 2 2 3 5 5 7 6 5 5 3 2 2 2 2 2 2 3 3 3 3 4 3 4 5 4
8 8 8 10 10 7 4 1 0 3 4 6 7 8 8 7 6 4 4 2 1 1 0 1 2 0 2 3 5 6 6 6 6 6 5 4 4 3 3 2 2 2 3 3 4 3 4 4 4
9 6 7 10 8 7 6 2 2 4 7 7 7 8 7 6 5 4 2 2 1 2 2 2 1 1 2 4 5 6 7 7 8 8 8 6 4 4 4 3 2 2 2 3 4 4 4 4 4
10 7 5 5 3 6 6 3 3 4 6 7 7 6 5 4 3 2 1 2 3 3 2 2 3 3 3 5 6 7 7 8 9 9 8 6 5 4 3 2 2 3 3 3 4 4 4 4 4
9 7 4 6 6 4 2 1 2 3 3 5 5 4 2 1 1 1 2 2 3 4 4 5 5 5 5 5 6 7 8 7 7 8 7 8 7 6 5 4 4 4 4 5 3 3 4 3 3
8 9 10 9 9 2 4 3 2 2 2 2 3 3 4 4 5 5 6 6 6 7 7 7 7 7 6 7 7 8 8 8 8 8 8 8 7 8 6 5 5 5 5 5 4 4 4 4 3
8 10 8 7 8 8 5 4 3 2 2 5 6 6 7 7 8 8 8 8 8 8 7 8 7 7 7 8 8 10 8 8 9 9 9 9 9 8 9 9 8 7 7 7 6 5 5 5 4
8 8 8 8 8 9 6 5 4 2 3 5 7 8 9 9 10 10 10 10 10 10 10 9 9 9 8 8 8 8 8 8 8 8 9 8 8 9 9 9 9 9 9 8 8 8 7 7 6
8 7 8 8 8 8 7 5 3 3 6 7 9 9 10 10 10 11 11 11 11 11 10 10 10 10 9 9 9 9 8 9 9 10 9 9 9 9 9 9 9 10 10 10 9 10 10 8 8
Wind_Direction
183 201 213 232 242 265 301 316 20 40 47 48 44 33 56 53 46 82 120 125 120 126 135 140 139 139 138 140 144 146 147 147 147 146 145 143 141 138 135 132 129 124 120 118 118 116 115 113 112
195 206 218 239 231 223 291 308 14 34 42 41 58 43 66 66 68 104 116 121 122 129 140 142 142 141 141 141 144 147 149 150 151 151 150 149 148 147 146 144 139 133 128 127 129 126 124 123 123
221 225 242 245 243 225 238 304 11 43 49 38 58 66 58 70 77 101 121 129 126 133 138 139 145 144 144 144 146 149 152 154 156 157 157 156 156 156 155 153 148 145 142 141 141 138 136 136 137
228 227 244 254 271 280 283 354 8 23 51 44 45 85 79 69 94 115 134 133 131 137 136 142 147 147 148 149 151 153 155 157 160 162 162 162 162 163 163 162 160 159 157 156 155 152 152 154 157
239 252 250 261 271 281 298 354 357 16 28 31 51 84 88 89 105 126 140 138 142 140 135 144 149 150 152 154 156 159 161 163 166 167 169 170 172 174 174 174 173 170 170 170 170 169 168 170 175
242 254 266 278 285 282 289 11 339 10 29 43 64 93 104 117 124 139 142 149 146 136 135 143 149 152 155 158 162 165 167 170 173 175 178 181 183 185 188 187 185 184 183 184 183 184 183 185 189
254 275 283 289 289 290 302 2 339 347 354 40 57 111 125 126 135 137 140 160 143 134 134 145 150 154 159 163 167 171 174 178 181 185 188 191 194 196 199 200 198 196 195 196 197 196 196 197 200
258 279 283 282 284 295 328 348 324 326 32 38 11 90 129 134 147 139 155 158 136 132 138 149 153 157 164 169 175 178 183 188 191 196 199 202 206 210 211 209 207 206 204 204 207 208 208 208 208
255 263 270 276 293 315 331 326 331 346 66 66 44 62 120 143 150 145 156 150 137 134 140 151 153 161 172 177 176 182 190 197 200 205 209 211 216 216 213 218 210 207 208 209 212 214 215 215 216
242 254 265 279 299 309 313 312 313 305 39 58 49 65 101 140 148 151 159 156 148 140 143 151 151 164 181 184 162 184 193 194 203 208 204 209 224 233 228 212 208 208 209 212 217 219 220 220 223
244 251 269 284 295 303 304 303 319 321 32 64 67 71 97 142 144 153 163 151 138 143 149 151 149 166 183 176 160 191 196 184 199 215 205 208 222 231 237 214 197 204 209 215 220 220 222 222 225
252 252 264 277 286 293 292 292 303 342 55 78 100 124 141 140 128 138 142 131 132 151 159 149 143 155 203 169 168 192 209 185 200 204 213 212 213 243 257 239 194 197 206 210 219 214 218 225 228
263 261 261 265 270 272 274 276 281 8 66 73 83 93 104 116 128 122 120 115 121 133 132 105 108 123 129 11 341 310 301 291 249 194 208 222 217 235 263 281 278 245 225 207 215 220 224 226 229
277 277 274 270 262 258 256 256 245 152 98 95 91 76 61 61 68 76 82 90 108 115 106 95 85 91 89 27 320 316 317 336 337 346 345 311 284 267 265 272 273 268 261 247 222 224 227 230 231
273 271 269 263 254 247 242 244 213 127 118 107 94 78 60 52 54 60 58 59 68 76 72 74 85 76 72 8 320 299 306 321 331 336 329 312 291 278 277 263 260 260 259 259 248 242 233 230 232
275 267 263 257 240 235 235 219 130 112 107 103 94 86 79 64 60 61 63 59 57 61 61 54 50 57 49 17 333 311 321 326 325 319 317 321 309 288 269 258 253 257 262 253 247 244 237 235 231
269 270 273 260 254 248 229 162 126 130 137 116 104 97 93 84 69 62 61 63 60 59 59 59 48 41 33 13 335 310 317 320 316 317 315 313 305 293 274 260 259 259 261 255 253 238 236 241 237
286 291 294 291 260 253 235 149 140 142 144 122 113 104 97 91 81 77 71 72 69 66 60 57 60 42 16 8 334 314 311 299 289 301 323 316 305 299 301 277 267 265 263 262 257 250 240 240 236
277 275 266 254 242 248 231 177 140 125 122 122 116 112 105 101 102 95 89 84 83 76 71 64 52 43 18 19 344 336 324 305 298 295 303 302 304 310 305 290 283 270 260 258 252 242 243 242 234
285 297 301 288 287 274 245 158 114 100 104 112 120 123 124 123 114 107 106 103 95 87 82 84 57 34 16 18 321 289 300 297 279 309 315 305 310 309 298 306 301 283 265 263 265 246 248 248 229
306 307 305 284 256 255 261 113 87 85 90 107 124 127 132 134 130 126 113 96 95 94 77 64 52 27 11 344 326 332 311 297 315 322 299 314 284 275 297 304 303 305 294 269 263 252 236 250 241
304 297 291 297 295 292 289 214 117 113 159 181 148 136 132 130 131 130 126 116 109 119 130 123 101 29 352 332 340 333 320 321 318 313 308 305 279 271 267 284 292 297 294 296 282 273 253 245 245
281 281 305 332 333 318 3 25 106 175 209 195 168 148 137 138 137 137 130 134 96 323 349 138 135 123 323 317 307 310 315 320 320 324 311 298 273 247 240 241 264 299 301 301 305 304 285 256 247
288 282 342 12 2 326 302 306 187 204 203 184 164 143 142 141 145 145 151 162 242 274 286 306 316 256 281 293 301 301 303 305 305 300 292 285 273 251 230 225 203 273 298 308 301 295 291 285 270
321 319 337 351 355 267 264 277 154 198 174 162 152 136 134 140 149 147 205 234 254 279 308 328 328 329 323 312 310 309 306 299 287 281 285 288 287 283 256 253 206 232 247 270 282 284 282 286 287
304 302 303 299 280 253 177 175 79 109 124 146 130 114 107 87 75 353 303 308 326 336 355 351 349 337 321 305 296 290 287 283 283 296 310 305 298 290 281 264 242 239 241 253 259 278 280 265 261
315 324 326 308 313 358 133 128 124 214 165 98 73 63 46 18 7 354 350 356 358 358 0 353 344 336 324 307 299 284 275 277 284 290 284 279 278 285 292 299 274 258 252 250 248 246 259 266 253
320 332 343 342 337 337 95 109 148 174 28 27 10 19 22 11 2 1 0 359 2 357 352 347 339 330 326 322 312 307 309 302 293 286 282 280 281 280 278 273 270 259 251 244 237 243 243 240 239
344 353 353 343 347 335 0 90 116 81 34 17 9 17 12 3 356 352 353 359 358 352 343 341 337 333 328 320 312 307 304 302 300 292 287 285 280 276 271 267 266 261 252 245 236 233 236 234 235
337 352 353 350 341 331 343 103 98 76 57 31 15 9 6 356 349 350 352 355 350 343 339 336 334 327 323 321 317 312 309 309 306 303 301 299 291 284 278 269 264 258 254 242 238 237 238 230 227
Height
1506 1507 1509 1513 1512 1512 1506 1480 1461 1457 1457 1458 1460 1459 1461 1469 1476 1488 1490 1490 1490 1490 1495 1499 1502 1505 1508 1510 1513 1516 1519 1521 1523 1525 1527 1529 1530 1532 1533 1535 1536 1537 1539 1540 1541 1542 1544 1545 1546
1506 1508 1512 1510 1507 1518 1505 1477 1464 1459 1459 1459 1460 1461 1464 1473 1478 1484 1488 1491 1490 1491 1496 1499 1502 1505 1508 1511 1513 1516 1519 1521 1523 1525 1527 1529 1531 1532 1534 1535 1537 1538 1540 1541 1542 1543 1545 1546 1547
1507 1510 1510 1500 1496 1500 1491 1468 1461 1458 1460 1460 1461 1464 1469 1477 1482 1485 1488 1491 1491 1493 1496 1499 1503 1506 1508 1511 1514 1516 1519 1521 1524 1526 1527 1529 1531 1532 1534 1536 1537 1538 1540 1541 1543 1544 1545 1546 1548
1508 1510 1505 1494 1487 1473 1468 1461 1458 1457 1459 1460 1461 1466 1475 1480 1482 1485 1488 1491 1492 1494 1496 1500 1503 1506 1509 1511 1514 1516 1519 1521 1523 1525 1527 1529 1531 1533 1534 1536 1537 1539 1540 1541 1543 1544 1545 1547 1548
1509 1505 1496 1487 1476 1464 1458 1458 1457 1458 1460 1461 1463 1470 1478 1482 1483 1485 1489 1492 1494 1496 1497 1501 1503 1506 1509 1511 1514 1516 1519 1521 1523 1525 1527 1529 1531 1532 1534 1535 1537 1538 1540 1541 1542 1544 1545 1546 1548
1507 1497 1492 1483 1470 1459 1455 1457 1458 1458 1461 1463 1465 1471 1480 1484 1485 1487 1490 1493 1495 1496 1497 1501 1504 1507 1509 1512 1514 1516 1518 1521 1523 1525 1527 1528 1530 1532 1533 1535 1536 1537 1539 1540 1541 1543 1544 1545 1547
1505 1495 1489 1478 1468 1459 1455 1457 1458 1460 1461 1464 1467 1471 1480 1484 1487 1488 1491 1494 1497 1497 1498 1502 1504 1507 1509 1512 1514 1516 1518 1520 1522 1524 1526 1527 1529 1530 1532 1533 1535 1536 1537 1539 1540 1541 1542 1544 1545
1501 1495 1488 1477 1467 1459 1453 1456 1458 1460 1463 1466 1468 1470 1480 1483 1487 1489 1492 1495 1498 1498 1499 1502 1504 1507 1510 1512 1514 1516 1518 1520 1522 1523 1525 1526 1527 1529 1530 1532 1533 1534 1536 1537 1538 1539 1540 1542 1543
1499 1497 1492 1476 1465 1459 1455 1456 1457 1461 1463 1467 1471 1473 1478 1481 1486 1489 1493 1496 1499 1500 1501 1503 1505 1507 1510 1512 1514 1516 1518 1519 1521 1522 1524 1525 1526 1527 1528 1530 1531 1532 1533 1535 1536 1537 1538 1539 1540
1494 1493 1483 1469 1462 1459 1457 1458 1458 1460 1464 1469 1475 1477 1481 1483 1486 1489 1493 1495 1498 1501 1503 1505 1506 1508 1511 1514 1514 1516 1517 1518 1519 1521 1522 1523 1525 1526 1528 1528 1529 1530 1531 1532 1533 1534 1535 1536 1537
1486 1483 1476 1470 1465 1462 1460 1459 1459 1461 1467 1473 1478 1480 1482 1485 1487 1490 1493 1495 1498 1501 1504 1506 1507 1509 1512 1514 1514 1516 1517 1517 1518 1519 1520 1521 1523 1524 1526 1527 1526 1527 1528 1529 1530 1531 1531 1532 1533
1479 1475 1473 1469 1466 1464 1463 1462 1462 1465 1472 1475 1478 1480 1482 1485 1487 1490 1492 1495 1498 1502 1504 1507 1507 1508 1511 1514 1515 1516 1517 1518 1518 1517 1518 1519 1520 1522 1524 1525 1525 1524 1524 1525 1526 1527 1528 1529 1530
1472 1469 1467 1466 1464 1464 1464 1463 1464 1468 1473 1476 1479 1483 1484 1485 1487 1489 1492 1494 1497 1501 1504 1505 1506 1507 1509 1511 1513 1515 1515 1516 1517 1516 1515 1516 1517 1518 1519 1520 1520 1521 1521 1522 1523 1523 1524 1525 1526
1470 1466 1463 1461 1460 1460 1461 1462 1464 1468 1473 1478 1481 1484 1486 1487 1488 1489 1490 1493 1496 1500 1503 1504 1505 1506 1508 1509 1511 1512 1513 1513 1514 1514 1513 1513 1513 1514 1514 1515 1515 1516 1517 1517 1518 1519 1520 1521 1522
1468 1465 1462 1459 1457 1457 1460 1463 1464 1469 1473 1478 1482 1486 1488 1489 1491 1491 1492 1494 1497 1500 1501 1503 1505 1505 1506 1507 1508 1510 1510 1510 1510 1510 1510 1509 1509 1510 1510 1510 1510 1511 1512 1512 1513 1514 1514 1515 1517
1466 1465 1466 1455 1452 1454 1461 1471 1466 1469 1474 1478 1483 1487 1490 1492 1493 1494 1494 1496 1497 1499 1500 1502 1504 1504 1505 1506 1506 1507 1507 1506 1506 1506 1506 1506 1505 1504 1504 1504 1504 1505 1506 1506 1507 1508 1508 1510 1511
1467 1470 1466 1457 1453 1453 1458 1468 1469 1469 1475 1479 1484 1489 1491 1494 1495 1496 1497 1498 1499 1499 1500 1502 1503 1503 1504 1505 1504 1505 1504 1504 1504 1503 1502 1501 1501 1499 1498 1498 1497 1498 1499 1500 1501 1502 1503 1504 1506
1474 1470 1470 1468 1459 1457 1460 1465 1468 1472 1474 1479 1485 1490 1493 1495 1497 1498 1499 1500 1500 1500 1501 1502 1503 1503 1503 1503 1503 1503 1502 1502 1501 1500 1499 1498 1497 1495 1494 1493 1492 1493 1493 1494 1495 1496 1497 1499 1501
1464 1465 1468 1466 1459 1459 1461 1463 1467 1472 1476 1480 1486 1491 1495 1497 1499 1500 1500 1501 1501 1501 1502 1502 1503 1503 1502 1502 1502 1501 1501 1500 1499 1498 1496 1495 1493 1492 1490 1489 1489 1488 1488 1488 1489 1491 1492 1494 1496
1463 1467 1467 1463 1459 1461 1462 1465 1470 1473 1479 1483 1487 1491 1495 1498 1500 1500 1501 1502 1502 1502 1502 1502 1502 1502 1502 1501 1500 1500 1499 1498 1497 1495 1494 1492 1491 1489 1488 1486 1485 1485 1485 1485 1485 1487 1488 1490 1492
1465 1468 1468 1469 1460 1458 1465 1478 1481 1481 1485 1488 1491 1492 1495 1497 1499 1501 1502 1502 1503 1503 1503 1503 1502 1501 1501 1500 1499 1499 1497 1496 1495 1494 1492 1490 1489 1487 1486 1484 1483 1482 1482 1482 1482 1483 1485 1486 1487
1469 1461 1460 1463 1468 1476 1477 1496 1495 1491 1490 1490 1492 1493 1495 1497 1499 1500 1501 1502 1503 1503 1502 1502 1501 1500 1499 1499 1498 1497 1496 1495 1493 1492 1490 1488 1486 1485 1484 1482 1481 1480 1480 1480 1480 1480 1481 1482 1484
1463 1458 1461 1466 1474 1481 1490 1500 1506 1498 1495 1492 1492 1493 1495 1497 1498 1500 1500 1501 1502 1502 1502 1501 1500 1499 1498 1497 1496 1495 1493 1492 1490 1489 1487 1485 1484 1482 1481 1480 1479 1478 1477 1477 1477 1477 1478 1478 1480
1455 1459 1467 1477 1488 1504 1500 1508 1512 1502 1496 1491 1491 1493 1495 1496 1497 1498 1499 1500 1500 1500 1500 1499 1498 1497 1496 1494 1493 1492 1490 1488 1487 1485 1484 1482 1481 1480 1478 1477 1476 1475 1475 1474 1474 1475 1475 1475 1476
1457 1469 1493 1507 1516 1513 1496 1505 1505 1494 1488 1488 1490 1491 1493 1495 1495 1496 1497 1498 1498 1498 1498 1497 1496 1494 1493 1492 1490 1489 1487 1485 1483 1482 1480 1479 1478 1477 1476 1475 1473 1472 1471 1471 1471 1471 1471 1471 1472
1459 1464 1487 1502 1504 1500 1501 1508 1499 1489 1488 1488 1489 1490 1491 1492 1493 1495 1495 1495 1496 1496 1495 1494 1493 1492 1490 1488 1486 1485 1483 1481 1479 1478 1476 1475 1474 1473 1472 1471 1469 1469 1468 1468 1467 1467 1467 1468 1469
1460 1459 1455 1467 1469 1484 1501 1502 1497 1489 1487 1486 1486 1487 1489 1491 1492 1493 1493 1494 1494 1494 1493 1492 1490 1488 1486 1484 1482 1481 1479 1477 1475 1473 1471 1470 1469 1468 1467 1466 1465 1464 1464 1464 1463 1463 1463 1464 1465
1454 1454 1459 1470 1484 1488 1494 1502 1503 1492 1487 1484 1485 1487 1488 1490 1491 1492 1492 1492 1492 1492 1491 1489 1487 1485 1483 1481 1478 1477 1474 1472 1470 1468 1466 1465 1463 1462 1461 1460 1460 1459 1459 1459 1459 1459 1459 1459 1460
1461 1462 1464 1467 1472 1485 1493 1504 1484 1484 1484 1484 1485 1486 1488 1490 1491 1491 1491 1491 1490 1489 1488 1486 1484 1482 1479 1476 1474 1471 1469 1466 1464 1462 1460 1458 1457 1456 1454 1454 1453 1453 1453 1453 1454 1454 1454 1455 1455
1465 1466 1468 1481 1483 1476 1482 1498 1476 1478 1480 1482 1484 1487 1488 1490 1491 1491 1490 1489 1488 1487 1485 1483 1480 1478 1475 1472 1469 1466 1463 1460 1458 1456 1453 1451 1450 1448 1447 1446 1446 1446 1446 1446 1447 1448 1449 1449 1450